Location: Erp
(42.9417°N, 1.2009°E)
Time: 04:40:44
(UTC+00:00)

NOSS 3-4 (C) - Visible Passes

Search period start: 19 April 2026 00:00
Search period end: 29 April 2026 00:00
Orbit: 773 x 1438 km, 63.4° (Epoch: 26 December)

Date Brightness Start Highest point End Pass type
(mag) Time Alt. Az. Time Alt. Az. Time Alt. Az.
19 Apr 6.5 00:21:47 10° N 00:24:06 12° N 00:26:32 10° NNE visible
19 Apr 5.7 02:11:49 10° NNW 02:17:24 28° NE 02:23:44 10° E visible
19 Apr 3.9 04:02:04 10° NW 04:09:02 87° SW 04:17:12 10° SSE visible
19 Apr 3.4 19:47:16 10° SW 19:52:30 71° NW 19:58:15 10° NNE visible
19 Apr 5.9 21:40:47 10° WNW 21:44:30 18° NNW 21:48:32 10° NNE visible
19 Apr 6.5 23:36:34 10° NNW 23:38:14 11° N 23:39:56 10° NNE visible
20 Apr 6.0 01:27:06 10° NNW 01:31:54 21° NNE 01:37:12 10° ENE visible
20 Apr 4.3 03:17:10 10° NNW 03:23:59 66° NE 03:31:59 10° SE visible
20 Apr 3.1 19:02:23 10° SSW 19:07:35 70° ESE 19:13:14 10° NE visible
20 Apr 5.5 20:54:37 10° W 20:59:00 24° NW 21:03:46 10° NNE visible
20 Apr 6.5 22:50:35 10° NNW 22:52:21 11° N 22:54:11 10° NNE visible
21 Apr 6.3 00:42:23 10° NNW 00:46:16 16° NNE 00:50:27 10° ENE visible
21 Apr 4.9 02:32:21 10° NNW 02:38:50 46° NE 02:46:22 10° ESE visible
21 Apr 4.2 04:23:08 10° NW 04:29:52 47° WSW 04:37:35 10° S visible
21 Apr 4.9 20:08:47 10° WSW 20:13:38 35° NW 20:18:58 10° NNE visible
21 Apr 6.3 22:04:03 10° NW 22:06:31 13° NNW 22:09:08 10° NNE visible
21 Apr 6.4 23:57:38 10° NNW 00:00:30 13° NNE 00:03:33 10° NE visible
22 Apr 5.4 01:47:35 10° NNW 01:53:33 33° NE 02:00:23 10° ESE visible
22 Apr 3.9 03:38:00 10° NW 03:44:57 70° WSW 03:53:04 10° SSE visible
22 Apr 4.1 19:23:17 10° SW 19:28:27 54° NW 19:34:07 10° NNE visible
22 Apr 6.1 21:17:30 10° WNW 21:20:48 15° NNW 21:24:18 10° NNE visible
22 Apr 6.5 23:12:41 10° N 23:14:39 11° N 23:16:43 10° NNE visible
23 Apr 5.8 01:02:52 10° NNW 01:08:08 24° NE 01:14:03 10° E visible
23 Apr 4.0 02:53:01 10° NW 02:59:56 81° NE 03:08:05 10° SE visible
23 Apr 5.8 20:31:11 10° WNW 20:35:12 20° NNW 20:39:33 10° NNE visible
23 Apr 6.4 22:27:11 10° NNW 22:28:47 11° N 22:30:25 10° NNE visible
24 Apr 6.1 00:18:09 10° NNW 00:22:34 19° NNE 00:27:25 10° ENE visible
24 Apr 4.4 02:08:09 10° NNW 02:14:51 57° NE 02:22:41 10° SE visible
24 Apr 4.4 03:59:15 10° NW 04:05:41 37° WSW 04:12:59 10° S visible
24 Apr 5.4 19:45:08 10° W 19:49:45 28° NW 19:54:47 10° NNE visible
24 Apr 6.3 21:40:53 10° NNW 21:42:55 12° N 21:45:01 10° N visible
24 Apr 6.3 23:33:26 10° NNW 23:36:52 15° NNE 23:40:35 10° NE visible
25 Apr 5.0 01:23:21 10° NNW 01:29:38 40° NE 01:36:55 10° ESE visible
25 Apr 4.0 03:13:59 10° NW 03:20:49 56° WSW 03:28:46 10° SSE visible
25 Apr 6.2 20:54:18 10° NW 20:57:07 14° NNW 21:00:06 10° NNE visible
25 Apr 6.3 22:48:36 10° NNW 22:51:04 12° NNE 22:53:40 10° NE visible
26 Apr 5.5 00:38:36 10° NNW 00:44:18 29° NE 00:50:46 10° E visible
26 Apr 3.8 02:28:54 10° NW 02:35:52 82° WSW 02:44:01 10° SSE visible
26 Apr 5.2 04:21:31 10° WNW 04:26:10 18° WSW 04:31:11 10° SSW visible
26 Apr 6.0 20:07:50 10° WNW 20:11:26 17° NNW 20:15:19 10° NNE visible
26 Apr 6.3 22:03:30 10° NNW 22:05:13 11° N 22:06:59 10° NNE visible
26 Apr 5.8 23:53:54 10° NNW 23:58:50 22° NNE 00:04:19 10° E visible
27 Apr 4.1 01:43:59 10° NNW 01:50:50 70° NE 01:58:52 10° SE visible
27 Apr 4.7 03:35:29 10° WNW 03:41:29 29° WSW 03:48:10 10° SSW visible
27 Apr 5.7 19:21:37 10° W 19:25:54 23° NNW 19:30:34 10° NNE visible
27 Apr 6.3 21:17:38 10° NNW 21:19:19 11° N 21:21:04 10° NNE visible
27 Apr 6.1 23:09:11 10° NNW 23:13:13 17° NNE 23:17:35 10° ENE visible
28 Apr 4.6 00:59:08 10° NNW 01:05:42 49° NE 01:13:19 10° ESE visible
28 Apr 4.2 02:50:01 10° NW 02:56:40 44° WSW 03:04:17 10° S visible
28 Apr 6.2 20:31:09 10° NW 20:33:29 12° NNW 20:35:57 10° NNE visible
28 Apr 6.2 22:24:25 10° NNW 22:27:28 13° NNE 22:30:42 10° NE visible
